Regional Weather Roundup
Issued by NWS

Home | Current Version | Previous Version | Graphics & Text | Print | Product List | Glossary On
Versions: 1 2 3 4 5 6 7 8 9 10 11 12 13 14 15 16 17 18 19 20 21 22 23 24 25 26 27 28 29 30 31 32 33 34 35 36 37 38 39 40 41 42 43 44 45 46 47 48 49 50
000
ASUS44 KMEG 012300
RWRTN
TENNESSEE HOURLY STATE WEATHER ROUNDUP
NATIONAL WEATHER SERVICE MEMPHIS TN
600 PM CDT MON SEP 01 2014

TNZ002-004-019-021-049-052-054-088>092-020000-
WEST TENNESSEE

CITY           SKY/WX    TMP DP  RH WIND       PRES   REMARKS
MEMPHIS INTL   MOSUNNY   89  71  55 S13       29.96S HX  95
NWS MEMPHIS      N/A     91 N/A N/A MISG        N/A
JACKSON        SUNNY     87  71  58 S8        29.97R HX  93
DYERSBURG      MOSUNNY   88  66  48 S9        29.94F HX  90
UNION CITY     SUNNY     84  72  65 SW9       29.94R
PARIS          SUNNY     84  70  61 SW12      29.96S
SAVANNAH       SUNNY     90  70  51 S6        29.99S HX  95
$$

TNZ008-025-027-028-033-062-065-066-020000-
NORTH MIDDLE TENNESSEE

CITY           SKY/WX    TMP DP  RH WIND       PRES   REMARKS
NASHVILLE      PTSUNNY   89  66  46 SW10G25   29.99S HX  91
CLARKSVILLE    PTSUNNY   86  71  60 SW9       29.95R HX  91
COOKEVILLE     SUNNY     86  73  66 SW3       30.03F HX  93
CROSSVILLE     MOSUNNY   82  67  60 CALM      30.09F
$$

TNZ061-075-076-078-094-096-097-020000-
SOUTH MIDDLE TENNESSEE

CITY           SKY/WX    TMP DP  RH WIND       PRES   REMARKS
TULLAHOMA      SUNNY     84  66  54 S6        30.05F
WINCHESTER     SUNNY     88  70  55 SW5       30.04F HX  92
SHELBYVILLE    SUNNY     90  70  51 SW9       30.02F HX  95
$$

TNZ017-018-042-046-047-020000-
NORTHEAST TENNESSEE

CITY           SKY/WX    TMP DP  RH WIND       PRES   REMARKS
TRI CITIES     MOSUNNY   86  66  51 W6        30.07F
ELIZABETHTON   CLEAR     81  70  69 CALM      30.09S
$$

TNZ012-013-036-069-073-074-020000-
CENTRAL EAST TENNESSEE

CITY           SKY/WX    TMP DP  RH WIND       PRES   REMARKS
KNOXVILLE      MOSUNNY   86  69  56 SW13      30.03F HX  90
OAK RIDGE      SUNNY     88  70  55 VRB6      30.05F HX  93
GATLINBURG     CLEAR     90  68  48 W5        30.04F HX  93
$$

TNZ083-085-099-020000-
SOUTHEAST TENNESSEE

CITY           SKY/WX    TMP DP  RH WIND       PRES   REMARKS
CHATTANOOGA    MOSUNNY   90  67  46 SW7       30.04S HX  93
$$

SKY/WX REPORTED AS FAIR MEANS FEW OR NO CLOUDS BELOW
12 THOUSAND FEET.



USA.gov is the U.S. government's official web portal to all federal, state and local government web resources and services.